User: anonymous   Login
Location: Newark
(6.1731°S, 35.7419°E)
Time: 21:00:34
(UTC+00:00)
Language:

Vanguard 2 Rocket - Orbit

View from above orbital plane
View from above orbital plane
View from above satellite
View from above satellite

Ground track
Ground track

The orbit data is extracted from the following two-line orbital elements,

1    12U 59001B   20056.28050566 -.00000104 +00000-0 -79411-4 0  9996
2    12 032.9068 026.8809 1667010 200.9717 151.3760 11.44305501267016
Epoch (UTC): 25 February 2020 06:43:55
Eccentricity: 0.1667010
inclination: 32.9068°
perigee height: 553 km
apogee height: 3327 km
right ascension of ascending node: 26.8809°
argument of perigee: 200.9717°
revolutions per day: 11.44305501
mean anomaly at epoch: 151.3760°
orbit number at epoch: 26701

The dashed part of the orbit path shows where the satellite is in the earth's shadow,  

DLR